Simultaneous Nadir Overpasses (SNOs) Predictions

Prediction of SNOs near US between AQUA and NPP Satellite Orbit:

Table of predicted SNOs near US for the next 10.0 days since TLE Epoch: 5/1/2020
Index Date (AQUA) Time (AQUA) AQUA Lat,Lon Date (NPP) Time (NPP) NPP Lat,Lon Distance(km) Time Diff (sec)
1 05/03/2020 07:18:59 49.88, -76.01 05/03/2020 07:19:53 50.32, -78.18 161.93 54
2 05/03/2020 08:57:52 49.89,-100.73 05/03/2020 09:01:21 50.43,-103.50 206.43 209
3 05/05/2020 18:17:07 49.95, -80.17 05/05/2020 18:10:09 49.67, -81.73 115.75 418
4 05/05/2020 19:56:00 49.95,-104.89 05/05/2020 19:51:37 49.56,-107.05 161.02 263
5 05/05/2020 21:31:10 36.65,-124.99 05/05/2020 21:29:16 36.19,-127.55 235.50 114
6 05/08/2020 09:24:40 20.07,-114.23 05/08/2020 09:16:21 20.19,-114.68 49.00 499
7 05/11/2020 06:30:43 45.43, -65.38 05/11/2020 06:30:26 45.76, -67.40 161.33 17
8 05/11/2020 08:08:21 49.89, -88.36 05/11/2020 08:10:36 50.36, -90.84 184.59 135
9 05/11/2020 09:47:14 49.89,-113.08 05/11/2020 09:52:03 50.53,-116.14 229.05 289




NCC Satellite Simultaneous Nadir Overpasses (SNOs) Prediction Service
